Regional Weather Roundup
Issued by NWS Boston, MA

Home | Current Version | Previous Version | Text Only | Print | Product List | Glossary On
Versions: 1 2 3 4 5 6 7 8 9 10 11 12 13 14 15 16 17 18 19 20 21 22 23 24 25 26 27
000
ASUS41 KBOX 291710
RWRBOX

REGIONAL WEATHER ROUNDUP
NATIONAL WEATHER SERVICE TAUNTON MA
100 PM EDT FRI APR 29 2016

NOTE:  "FAIR" INDICATES FEW OR NO CLOUDS BELOW 12,000 FEET WITH NO
SIGNIFICANT WEATHER AND/OR OBSTRUCTIONS TO VISIBILITY.  THE FOLLOWING
OBSERVATION LOCATIONS DO NOT REPORT PRESENT WEATHER...PROVINCETOWN...
SMITHFIELD...BLOCK ISLAND...KEENE...AND OXFORD.

MAZALL-291800-
EASTERN MASSACHUSETTS

CITY           SKY/WX    TMP DP  RH WIND       PRES   REMARKS
BOSTON         PTSUNNY   50  33  52 E17       30.18F
BEVERLY        MOSUNNY   49  32  52 SE14      30.17F
LAWRENCE       PTSUNNY   53  32  44 MISG      30.17F
BEDFORD        PTSUNNY   52  34  50 SE10      30.14F
BLUE HILL        N/A     51  29  42 VRB6      30.13F
NORWOOD        MOSUNNY   54  31  41 E7        30.15F
MARSHFIELD     MOSUNNY   48  34  57 E9G18     30.19F
PLYMOUTH       PTSUNNY   51  33  50 E14       30.16F
TAUNTON        SUNNY     56  30  37 VRB5      30.14F
NEW BEDFORD    SUNNY     52  35  52 SE15      30.15F
$$

MAZALL-291800-
CAPE COD AND THE ISLANDS

CITY           SKY/WX    TMP DP  RH WIND       PRES   REMARKS
FALMOUTH       SUNNY     50  30  46 SE13      30.17F
HYANNIS        SUNNY     49  29  46 SE10G18   30.16F
CHATHAM        SUNNY     47  32  56 E12G20    30.20F
PROVINCETOWN   MOSUNNY   50  32  50 VRB3      30.19F
NANTUCKET      CLOUDY    48  33  56 E15       30.17F
MARTHAS VNYRD  SUNNY     52  33  48 E14       30.17F
$$

MAZALL-291800-
CENTRAL AND WESTERN MASSACHUSETTS

CITY           SKY/WX    TMP DP  RH WIND       PRES   REMARKS
WORCESTER      CLOUDY    51  28  41 SE7       30.12F
FITCHBURG      MOSUNNY   56  31  38 N7        30.13F
ORANGE         MOSUNNY   53  30  41 VRB3      30.11F
SPRINGFIELD    SUNNY     58  30  34 VRB2      30.09F
WESTFIELD      PTSUNNY   57  32  38 SW8G16    30.10F
NORTH ADAMS    SUNNY     56  34  43 VRB6      30.08F
PITTSFIELD     CLOUDY    53  33  46 W6        30.07F
$$

RIZALL-291800-
RHODE ISLAND

CITY           SKY/WX    TMP DP  RH WIND       PRES   REMARKS
PROVIDENCE     MOSUNNY   53  30  41 VRB6      30.16F
NEWPORT        SUNNY     51  35  54 SE13G20   30.16F
BLOCK ISLAND   CLOUDY    48  37  65 E16       30.16F
SMITHFIELD       N/A     55  30  38 SE6       30.13F
WESTERLY       PTSUNNY   51  33  50 E14       30.16F
$$

CTZALL-291800-
CONNECTICUT

CITY           SKY/WX    TMP DP  RH WIND       PRES   REMARKS
BRADLEY INTL   PTSUNNY   56  35  45 VRB5      30.11F
HARTFORD       CLOUDY    56  38  50 S6        30.12F
BRIDGEPORT     CLOUDY    51  38  60 E17       30.14F
DANBURY        CLOUDY    53  32  44 S10       30.12F
GROTON         CLOUDY    50  41  71 E20       30.15F
NEW HAVEN      PTSUNNY   51  38  60 E16G23    30.15F
CHESTER        FAIR      52  34  50 SE12      30.13F
MERIDEN        CLOUDY    56  36  47 E8        30.12F
WILLIMANTIC    CLOUDY    57  33  40 S6        30.12F
OXFORD         PTSUNNY   54  36  50 SE9G16    30.13F
$$

MEZ002-015-021-024-NHZ003-005-008-011-012-014-VTZ005-008-291800-
NORTHERN NEW ENGLAND

CITY           SKY/WX    TMP DP  RH WIND       PRES   REMARKS
PORTLAND ME    CLOUDY    43  33  68 E12       30.20F
BANGOR ME      MOSUNNY   54  16  22 W9G20     30.15F
CONCORD NH     MOSUNNY   56  29  35 S8        30.14F
MANCHESTER NH  PTSUNNY   52  30  43 VRB5      30.13F
NASHUA NH      PTSUNNY   54  28  36 CALM      30.14F
PORTSMOUTH NH  CLOUDY    48  32  54 SE10      30.16F
JAFFREY NH     SUNNY     52  28  39 S8        30.11F
KEENE NH       SUNNY     55  30  38 W6        30.11F
BURLINGTON VT  FAIR      53  24  32 NW7       30.11F
MT. WASHINGTON MOSUNNY   25  18  74 W18G25      N/A  WCI  11
$$

NYZ052-076-291800-
EASTERN NEW YORK

CITY           SKY/WX    TMP DP  RH WIND       PRES   REMARKS
ALBANY         PTSUNNY   57  35  43 S9        30.09F
NEW YORK CITY  PTSUNNY   57  19  22 E21       30.10F
$$

ANZALL-291800-
MARINE OBSERVATIONS

STATION/POSITION TIME  TEMP    WIND        PRES    VSBY  WAVE
                       AIR SEA DIR/SP/G                  HT/PER
                 (UTC) (F)     (DEG/KT/KT) (MB)    (MI)  (FT/S)
BOSTON BUOY      1650   44 47  110/ 10/ 12 1021.7F         2/ 9
BUZZARDS BAY     1600   45      80/ 13/ 13 1022.4R
NANTUCKET SOUND  1650   45 48   80/ 14/ 16 1021.9F         2/ 4
MASS BAY-STELLWA 1604   44 46                N/A    1 7/8  2/10
ISLE OF SHOALS   1600   44     140/ 12/ 13 1022.1F
S OF BLOCK IS    NOT AVBL
$$

......................KEY.........................
  SKY/WX - SKY CONDITION/PRESENT WEATHER
  TMP    - TEMPERATURE IN FAHRENHEIT
  DWPT   - DEWPOINT IN FAHRENHEIT
  RH     - RELATIVE HUMIDITY IN PERCENT
  WIND   - DIRECTION AND SPEED IN MPH
  PRES   - MEAN SEA LEVEL PRESSURE IN INCHES OF HG
  WCI    - WIND CHILL INDEX
  VSB    - VISIBILITY IN MILES
  HX     - HEAT INDEX
  TC     - TEMPERATURE IN CELSIUS
  VRB    - VARIABLE WIND DIRECTION
  N/A    - NOT AVAILABLE




USA.gov is the U.S. government's official web portal to all federal, state and local government web resources and services.